GW3385 Weather Reports


time (UTC)temp
F
wind
direction
speed
knots
gust
knots
rain 1hr
in
rain 24hr
in
rain mn
in
humidity
%
barometer
mb
20260904181607 73 170 2.6 7.8 0.00 0.00 0.00 71 1013.3
20260904181056 73 210 1.7 5.2 0.00 0.00 0.00 72 1013.3
20260904180556 73 273 1.7 7.0 0.00 0.00 0.00 70 1013.4
20260904180059 73 256 2.6 10.4 0.00 0.00 0.00 71 1013.3
20260904175555 73 198 1.7 10.4 0.00 0.00 0.00 71 1013.4
20260904175055 72 186 2.6 5.2 0.00 0.00 0.00 72 1013.4
20260904174608 72 292 0.9 5.2 0.00 0.00 0.00 72 1013.4
20260904174056 72 221 1.7 5.2 0.00 0.00 0.00 73 1013.4
20260904173556 72 0 1.7 5.2 0.00 0.00 0.00 71 1013.3
20260904173112 72 190 0.9 5.2 0.00 0.00 0.00 71 1013.2
20260904172556 72 134 1.7 5.2 0.00 0.00 0.00 70 1013.2
20260904172056 72 103 0.9 5.2 0.00 0.00 0.00 72 1013.2
20260904171558 72 0 1.7 5.2 0.00 0.00 0.00 72 1013.2
20260904171055 72 0 2.6 5.2 0.00 0.00 0.00 72 1013.1
20260904170558 72 188 0.0 4.3 0.00 0.00 0.00 72 1013.2
20260904170110 71 0 0.9 7.0 0.00 0.00 0.00 74 1013.1
20260904165556 71 212 2.6 7.0 0.00 0.00 0.00 73 1013.1
20260904165055 71 181 2.6 6.1 0.00 0.00 0.00 73 1013.0
20260904164606 71 259 1.7 4.3 0.00 0.00 0.00 72 1012.9
20260904164059 71 180 0.9 4.3 0.00 0.00 0.00 73 1012.8
20260904163556 71 0 0.9 4.3 0.00 0.00 0.00 73 1012.8
20260904163101 71 173 0.9 2.6 0.00 0.00 0.00 74 1012.8
20260904162556 70 0 0.0 3.5 0.00 0.00 0.00 76 1012.7
20260904162055 69 290 0.0 3.5 0.00 0.00 0.00 80 1012.7
20260904161600 68 44 0.9 3.5 0.00 0.00 0.00 81 1012.8
20260904161055 68 0 0.9 3.5 0.00 0.00 0.00 82 1012.7
20260904160555 68 0 0.0 1.7 0.00 0.00 0.00 82 1012.7
20260904160106 67 55 0.0 1.7 0.00 0.00 0.00 82 1012.7
20260904155556 67 0 0.0 2.6 0.00 0.00 0.00 83 1012.6
20260904155056 67 111 0.0 3.5 0.00 0.00 0.00 82 1012.7
20260904154621 68 110 0.0 4.3 0.00 0.00 0.00 82 1012.6
20260904154056 68 101 1.7 4.3 0.00 0.00 0.00 81 1012.7
20260904153556 68 0 0.9 4.3 0.00 0.00 0.00 81 1012.7
20260904153102 68 65 1.7 3.5 0.00 0.00 0.00 82 1012.7
20260904152555 68 58 0.9 3.5 0.00 0.00 0.00 83 1012.7
20260904152057 68 0 0.0 0.0 0.00 0.00 0.00 83 1012.7
20260904151609 68 0 0.0 0.0 0.00 0.00 0.00 84 1012.5
20260904151055 67 0 0.0 0.0 0.00 0.00 0.00 85 1012.6
20260904150555 67 0 0.0 0.0 0.00 0.00 0.00 86 1012.5
20260904150104 66 0 0.0 0.0 0.00 0.00 0.00 87 1012.5
20260904145556 66 0 0.0 0.0 0.00 0.00 0.00 87 1012.4
20260904145056 65 0 0.0 0.0 0.00 0.00 0.00 88 1012.4
20260904144604 65 0 0.0 0.0 0.00 0.00 0.00 89 1012.4
20260904144100 64 0 0.0 0.0 0.00 0.00 0.00 90 1012.4
20260904143558 64 0 0.0 0.0 0.00 0.00 0.00 90 1012.3
20260904143100 63 0 0.0 0.0 0.00 0.00 0.00 90 1012.2
20260904142556 63 0 0.0 0.0 0.00 0.00 0.00 91 1012.1
20260904142055 63 0 0.0 0.0 0.00 0.00 0.00 91 1012.2
20260904141624 63 0 0.0 0.0 0.00 0.00 0.00 91 1012.2
20260904141056 63 0 0.0 0.0 0.00 0.00 0.00 91 1012.1
20260904140555 63 0 0.0 0.0 0.00 0.00 0.00 91 1012.2
20260904140110 62 0 0.0 0.0 0.00 0.00 0.00 91 1012.1
20260904135556 62 0 0.0 0.0 0.00 0.00 0.00 91 1012.0
20260904135057 62 0 0.0 0.0 0.00 0.00 0.00 91 1011.9
20260904134620 62 0 0.0 0.0 0.00 0.00 0.00 91 1011.9
20260904134056 62 0 0.0 0.0 0.00 0.00 0.00 91 1011.9
20260904133556 62 0 0.0 0.0 0.00 0.00 0.00 91 1011.8
20260904133114 62 0 0.0 0.0 0.00 0.00 0.00 91 1011.7
20260904132556 62 0 0.0 0.0 0.00 0.00 0.00 91 1011.7
20260904132056 62 0 0.0 0.0 0.00 0.00 0.00 91 1011.7
20260904131615 63 0 0.0 0.0 0.00 0.00 0.00 91 1011.7
20260904131056 63 0 0.0 0.0 0.00 0.00 0.00 91 1011.7
20260904130555 63 0 0.0 0.0 0.00 0.00 0.00 91 1011.9
20260904130105 63 0 0.0 0.0 0.00 0.00 0.00 91 1011.7
20260904125559 63 0 0.0 0.0 0.00 0.00 0.00 91 1011.7
20260904125056 63 0 0.0 0.0 0.00 0.00 0.00 91 1011.6
20260904124602 63 0 0.0 0.0 0.00 0.00 0.00 91 1011.6
20260904124056 63 0 0.0 0.0 0.00 0.00 0.00 91 1011.6
20260904123556 62 0 0.0 0.0 0.00 0.00 0.00 91 1011.6
20260904123128 63 0 0.0 0.0 0.00 0.00 0.00 91 1011.6
20260904122556 62 0 0.0 0.0 0.00 0.00 0.00 91 1011.5
20260904122056 62 0 0.0 0.0 0.00 0.00 0.00 91 1011.4
20260904121559 62 0 0.0 0.0 0.00 0.00 0.00 91 1011.4
20260904121056 62 0 0.0 0.0 0.00 0.00 0.00 91 1011.3
20260904120555 62 0 0.0 0.0 0.00 0.00 0.00 91 1011.4
20260904120100 63 0 0.0 0.0 0.00 0.00 0.00 91 1011.4
20260904115555 63 0 0.0 0.0 0.00 0.00 0.00 91 1011.4
20260904115055 63 0 0.0 0.0 0.00 0.00 0.00 91 1011.4
20260904114605 63 0 0.0 0.0 0.00 0.00 0.00 91 1011.4
20260904114056 63 0 0.0 0.0 0.00 0.00 0.00 91 1011.4
20260904113556 63 0 0.0 0.0 0.00 0.00 0.00 91 1011.4
20260904113105 62 0 0.0 0.0 0.00 0.00 0.00 91 1011.4
20260904112557 62 0 0.0 0.0 0.00 0.00 0.00 91 1011.4
20260904112056 62 0 0.0 0.0 0.00 0.00 0.00 91 1011.4
20260904111600 62 0 0.0 0.0 0.00 0.00 0.00 90 1011.4
20260904111054 62 0 0.0 0.0 0.00 0.00 0.00 90 1011.3
20260904110555 62 0 0.0 0.0 0.00 0.00 0.00 91 1011.4
20260904110116 62 0 0.0 0.0 0.00 0.00 0.00 91 1011.5
20260904105554 62 0 0.0 0.0 0.00 0.00 0.00 91 1011.5
20260904105052 62 0 0.0 0.0 0.00 0.00 0.00 91 1011.4
20260904104557 62 0 0.0 0.0 0.00 0.00 0.00 91 1011.4
20260904104053 62 0 0.0 0.0 0.00 0.00 0.00 91 1011.4
20260904103551 62 0 0.0 0.0 0.00 0.00 0.00 91 1011.4
20260904103107 62 0 0.0 0.0 0.00 0.00 0.00 90 1011.4
20260904102554 62 0 0.0 0.0 0.00 0.00 0.00 90 1011.4
20260904102050 62 0 0.0 0.0 0.00 0.00 0.00 90 1011.5
20260904101601 62 0 0.0 0.0 0.00 0.00 0.00 90 1011.3
20260904101051 62 0 0.0 0.0 0.00 0.00 0.00 90 1011.4
20260904100551 62 0 0.0 0.0 0.00 0.00 0.00 90 1011.4
20260904100104 62 0 0.0 0.0 0.00 0.00 0.00 90 1011.4
20260904095555 62 0 0.0 0.0 0.00 0.00 0.00 90 1011.4
20260904095052 62 0 0.0 0.0 0.00 0.00 0.00 90 1011.3
20260904094557 62 0 0.0 0.0 0.00 0.00 0.00 90 1011.4
20260904094051 62 0 0.0 0.0 0.00 0.00 0.00 90 1011.4
20260904093556 63 0 0.0 0.0 0.00 0.00 0.00 90 1011.4
20260904093103 62 0 0.0 0.0 0.00 0.00 0.00 90 1011.4
20260904092551 62 0 0.0 0.0 0.00 0.00 0.00 90 1011.4
20260904092051 63 0 0.0 0.0 0.00 0.00 0.00 90 1011.3
20260904091559 63 0 0.0 0.0 0.00 0.00 0.00 90 1011.3
20260904091053 63 0 0.0 0.0 0.00 0.00 0.00 90 1011.4
20260904090550 63 0 0.0 0.0 0.00 0.00 0.00 90 1011.4
20260904090057 63 0 0.0 0.0 0.00 0.00 0.00 90 1011.4
20260904085554 63 0 0.0 0.0 0.00 0.00 0.00 90 1011.3
20260904085057 63 0 0.0 0.0 0.00 0.00 0.00 89 1011.4
20260904084606 63 0 0.0 0.0 0.00 0.00 0.00 89 1011.4
20260904084051 63 0 0.0 0.0 0.00 0.00 0.00 89 1011.5
20260904083551 63 0 0.0 0.0 0.00 0.00 0.00 90 1011.6
20260904083101 63 0 0.0 0.0 0.00 0.00 0.00 90 1011.6
20260904082553 63 0 0.0 0.0 0.00 0.00 0.00 89 1011.5
20260904082051 63 0 0.0 0.0 0.00 0.00 0.00 89 1011.6
20260904081558 63 0 0.0 0.0 0.00 0.00 0.00 89 1011.5
20260904081050 63 0 0.0 0.9 0.00 0.00 0.00 89 1011.6
20260904080550 63 0 0.0 1.7 0.00 0.00 0.00 89 1011.6
20260904080117 63 337 0.0 2.6 0.00 0.00 0.00 89 1011.7
20260904075553 63 324 0.0 2.6 0.00 0.00 0.00 89 1011.7
20260904075051 63 0 0.9 2.6 0.00 0.00 0.00 88 1011.7
20260904074604 63 0 0.0 0.0 0.00 0.00 0.00 88 1011.8
20260904074051 63 0 0.0 0.0 0.00 0.00 0.00 88 1011.8
20260904073554 63 0 0.0 0.0 0.00 0.00 0.00 88 1011.7
20260904073101 63 0 0.0 0.0 0.00 0.00 0.00 88 1011.7
20260904072550 63 0 0.0 0.0 0.00 0.00 0.00 88 1011.6
20260904072050 64 0 0.0 0.0 0.00 0.00 0.00 87 1011.5
20260904071600 64 0 0.0 0.0 0.00 0.00 0.00 88 1011.6
20260904071057 64 0 0.0 0.0 0.00 0.00 0.00 88 1011.5
20260904070555 64 0 0.0 0.0 0.00 0.00 0.00 88 1011.5
20260904065551 64 0 0.0 0.0 0.00 0.00 0.00 87 1011.4
20260904065051 64 0 0.0 0.0 0.00 0.00 0.00 87 1011.5
20260904064621 64 0 0.0 0.0 0.00 0.00 0.00 88 1011.5
20260904064051 64 0 0.0 0.0 0.00 0.00 0.00 87 1011.4
20260904063551 64 0 0.0 0.0 0.00 0.00 0.00 87 1011.4
20260904063108 64 0 0.0 0.0 0.00 0.00 0.00 87 1011.3
20260904062554 64 0 0.0 0.0 0.00 0.00 0.00 87 1011.3
20260904062050 64 0 0.0 0.0 0.00 0.00 0.00 87 1011.3
20260904061557 64 0 0.0 0.0 0.00 0.00 0.00 87 1011.3
20260904061058 64 0 0.0 0.0 0.00 0.00 0.00 87 1011.3
20260904060555 64 0 0.0 0.0 0.00 0.00 0.00 87 1011.2
20260904060110 64 0 0.0 0.9 0.00 0.00 0.00 87 1011.2
20260904055551 65 0 0.0 0.9 0.00 0.00 0.00 87 1011.2
20260904055051 65 0 0.0 0.9 0.00 0.00 0.00 87 1011.2
20260904054604 65 0 0.0 0.0 0.00 0.00 0.00 87 1011.3
20260904054054 65 0 0.0 0.0 0.00 0.00 0.00 87 1011.2
20260904053551 65 0 0.0 0.0 0.00 0.00 0.00 87 1011.3
20260904053105 65 0 0.0 1.7 0.00 0.00 0.00 87 1011.2
20260904052553 65 0 0.0 1.7 0.00 0.00 0.00 86 1011.3
20260904052052 65 19 0.0 1.7 0.00 0.00 0.00 86 1011.4
20260904051558 65 0 0.0 1.7 0.00 0.00 0.00 86 1011.4
20260904051052 65 24 0.0 1.7 0.00 0.00 0.00 86 1011.4
20260904050551 65 0 0.0 1.7 0.00 0.00 0.00 86 1011.4
20260904050148 65 0 0.0 1.7 0.00 0.00 0.00 86 1011.3
20260904045556 66 0 0.0 1.7 0.00 0.00 0.00 85 1011.3
20260904045057 66 0 0.0 2.6 0.00 0.00 0.00 85 1011.3
20260904044605 66 0 0.0 2.6 0.00 0.00 0.00 85 1011.4
20260904044055 66 352 0.0 0.0 0.00 0.00 0.00 85 1011.3
20260904043556 66 0 0.0 0.0 0.00 0.00 0.00 84 1011.2
20260904043108 66 0 0.0 0.0 0.00 0.00 0.00 84 1011.0
20260904042556 66 0 0.0 1.7 0.00 0.00 0.00 84 1011.0
20260904042058 66 0 0.0 1.7 0.00 0.00 0.00 84 1011.1
20260904041609 67 0 0.0 1.7 0.00 0.00 0.00 84 1011.1
20260904041055 67 0 0.0 2.6 0.00 0.00 0.00 83 1011.0
20260904040555 67 0 0.0 2.6 0.00 0.00 0.00 83 1010.9
20260904040110 67 0 0.0 2.6 0.00 0.00 0.00 83 1011.1
20260904035557 67 0 0.0 1.7 0.00 0.00 0.00 83 1011.1
20260904035056 67 0 0.0 3.5 0.00 0.00 0.00 83 1011.0
20260904034614 67 268 0.0 3.5 0.00 0.00 0.00 83 1011.0
20260904034057 67 270 0.0 3.5 0.00 0.00 0.00 83 1010.9
20260904033555 67 203 0.0 3.5 0.00 0.00 0.00 83 1010.9
20260904033100 67 292 0.0 3.5 0.00 0.00 0.00 83 1010.8
20260904032555 67 180 1.7 3.5 0.00 0.00 0.00 83 1010.8
20260904032056 67 205 0.9 5.2 0.00 0.00 0.00 83 1010.8
20260904031604 67 0 0.9 5.2 0.00 0.00 0.00 83 1010.8
20260904031055 67 0 0.9 5.2 0.00 0.00 0.00 82 1010.8
20260904030555 67 198 0.9 4.3 0.00 0.00 0.00 82 1010.8
20260904030107 67 217 0.9 5.2 0.00 0.00 0.00 83 1010.7
20260904025556 67 263 1.7 5.2 0.00 0.00 0.00 83 1010.7
20260904025056 67 0 1.7 7.0 0.00 0.00 0.00 83 1010.6
20260904024603 67 244 0.0 9.6 0.00 0.00 0.00 83 1010.6
20260904024055 67 163 3.5 9.6 0.00 0.00 0.00 82 1010.7
20260904023555 67 185 2.6 6.1 0.00 0.00 0.00 82 1010.6
20260904023058 68 205 1.7 7.0 0.00 0.00 0.00 82 1010.7
20260904022556 68 210 2.6 8.7 0.00 0.00 0.00 82 1010.7
20260904022057 68 0 4.3 8.7 0.00 0.00 0.00 82 1010.6
20260904021558 68 290 4.3 8.7 0.00 0.00 0.00 82 1010.5
20260904021056 68 198 1.7 9.6 0.00 0.00 0.00 81 1010.6
20260904020556 68 218 4.3 9.6 0.00 0.00 0.00 80 1010.6
20260904015551 69 201 1.7 8.7 0.00 0.00 0.00 81 1010.6
20260904015052 69 254 3.5 8.7 0.00 0.00 0.00 81 1010.6
20260904014628 70 257 3.5 9.6 0.00 0.00 0.00 80 1010.7
20260904014052 70 244 4.3 9.6 0.00 0.00 0.00 79 1010.6
20260904013551 70 284 2.6 9.6 0.00 0.00 0.00 79 1010.6
20260904013058 70 244 3.5 9.6 0.00 0.00 0.00 78 1010.5
20260904012553 70 254 6.1 10.4 0.00 0.00 0.00 78 1010.6
20260904012055 71 222 4.3 10.4 0.00 0.00 0.00 78 1010.6
20260904011608 71 277 4.3 9.6 0.00 0.00 0.00 75 1010.6
20260904011054 71 229 1.7 7.8 0.00 0.00 0.00 75 1010.5
20260904010554 71 219 2.6 8.7 0.00 0.00 0.00 74 1010.5
20260904010106 71 232 3.5 9.6 0.00 0.00 0.00 75 1010.6
20260904005554 71 236 4.3 12.2 0.00 0.00 0.00 76 1010.6
20260904005054 72 288 6.1 12.2 0.00 0.00 0.00 75 1010.6
20260904004605 72 187 5.2 12.2 0.00 0.00 0.00 76 1010.6
20260904004054 72 280 6.1 12.2 0.00 0.00 0.00 75 1010.6
20260904003555 72 271 3.5 12.2 0.00 0.00 0.00 74 1010.7
20260904003102 72 196 3.5 12.2 0.00 0.00 0.00 74 1010.6
20260904002556 73 228 1.7 9.6 0.00 0.00 0.00 73 1010.7
20260904002051 73 271 4.3 10.4 0.00 0.00 0.00 72 1010.7
20260904001558 73 258 2.6 11.3 0.00 0.00 0.00 71 1010.8
20260904001054 73 244 5.2 11.3 0.00 0.00 0.00 73 1010.9
20260904000554 73 0 6.1 10.4 0.00 0.00 0.00 71 1010.8
20260904000106 73 171 4.3 11.3 0.00 0.00 0.00 71 1010.8
20260903235555 73 172 3.5 12.2 0.00 0.00 0.00 73 1010.9
20260903235051 73 223 4.3 12.2 0.00 0.00 0.00 74 1010.9
20260903234603 73 156 3.5 9.6 0.00 0.00 0.00 73 1010.9
20260903234051 73 232 2.6 10.4 0.00 0.00 0.00 74 1010.9
20260903233550 73 212 5.2 12.2 0.00 0.00 0.00 74 1011.0
20260903233059 73 197 5.2 12.2 0.00 0.00 0.00 73 1011.1
20260903232554 73 165 4.3 10.4 0.00 0.00 0.00 72 1011.1
20260903232052 73 300 4.3 9.6 0.00 0.00 0.00 73 1011.1
20260903231609 73 182 4.3 9.6 0.00 0.00 0.00 72 1011.2
20260903231054 73 215 4.3 12.2 0.00 0.00 0.00 73 1011.2
20260903230600 73 192 2.6 12.2 0.00 0.00 0.00 73 1011.1
20260903230111 74 284 4.3 12.2 0.00 0.00 0.00 72 1011.3
20260903225619 73 219 3.5 13.0 0.00 0.00 0.00 73 1011.3
20260903225055 73 163 6.1 13.0 0.00 0.00 0.00 72 1011.4
20260903224601 74 284 6.1 11.3 0.00 0.00 0.00 73 1011.4
20260903224051 74 200 2.6 9.6 0.00 0.00 0.00 71 1011.4
20260903223557 74 294 2.6 11.3 0.00 0.00 0.00 72 1011.5
20260903223112 74 200 4.3 11.3 0.00 0.00 0.00 73 1011.6
20260903222550 74 279 6.1 10.4 0.00 0.00 0.00 72 1011.7
20260903222056 74 193 4.3 9.6 0.00 0.00 0.00 71 1011.7
20260903221556 74 192 4.3 9.6 0.00 0.00 0.00 72 1011.8
20260903221057 74 287 3.5 10.4 0.00 0.00 0.00 72 1011.9
20260903220554 74 249 4.3 10.4 0.00 0.00 0.00 71 1011.9
20260903220111 74 191 5.2 13.0 0.00 0.00 0.00 72 1011.9
20260903215551 74 246 4.3 13.0 0.00 0.00 0.00 71 1011.9
20260903215053 74 213 5.2 13.0 0.00 0.00 0.00 73 1012.0
20260903214606 74 250 7.0 13.0 0.00 0.00 0.00 72 1012.0
20260903214054 74 246 6.1 13.0 0.00 0.00 0.00 70 1012.0
20260903213550 74 178 4.3 11.3 0.00 0.00 0.00 72 1012.1
20260903213100 74 224 4.3 10.4 0.00 0.00 0.00 71 1012.0
20260903212554 73 260 5.2 10.4 0.00 0.00 0.00 73 1012.0
20260903212051 73 279 5.2 12.2 0.00 0.00 0.00 71 1012.0
20260903211612 73 259 5.2 12.2 0.00 0.00 0.00 73 1012.1
20260903211054 73 290 7.0 13.9 0.00 0.00 0.00 73 1012.0
20260903210554 73 302 7.0 13.9 0.00 0.00 0.00 72 1012.2
20260903210105 73 260 6.1 12.2 0.00 0.00 0.00 71 1012.2
20260903205551 73 307 6.1 13.0 0.00 0.00 0.00 71 1012.3
20260903205054 74 270 5.2 13.0 0.00 0.00 0.00 71 1012.4
20260903204605 74 234 5.2 10.4 0.00 0.00 0.00 72 1012.4
20260903204051 74 293 3.5 11.3 0.00 0.00 0.00 72 1012.5
20260903203551 73 251 6.1 12.2 0.00 0.00 0.00 72 1012.4
20260903203100 73 312 5.2 12.2 0.00 0.00 0.00 71 1012.3
20260903202554 74 263 4.3 11.3 0.00 0.00 0.00 71 1012.4
20260903202051 74 274 7.0 11.3 0.00 0.00 0.00 71 1012.4
20260903201555 74 284 4.3 11.3 0.00 0.00 0.00 71 1012.4
20260903201052 73 205 5.2 11.3 0.00 0.00 0.00 73 1012.5
20260903200551 73 239 6.1 11.3 0.00 0.00 0.00 73 1012.6
20260903200109 73 282 5.2 11.3 0.00 0.00 0.00 72 1012.6
20260903195550 74 179 5.2 9.6 0.00 0.00 0.00 73 1012.7
20260903195057 73 184 4.3 12.2 0.00 0.00 0.00 72 1012.7
20260903194558 73 227 2.6 12.2 0.00 0.00 0.00 73 1012.7
20260903194054 73 205 5.2 11.3 0.00 0.00 0.00 72 1012.8
20260903193554 74 172 4.3 10.4 0.00 0.00 0.00 71 1012.9
20260903193105 74 286 3.5 9.6 0.00 0.00 0.00 71 1012.9
20260903192551 74 168 3.5 9.6 0.00 0.00 0.00 73 1013.1
20260903192050 74 168 4.3 9.6 0.00 0.00 0.00 72 1013.0
20260903191608 74 219 3.5 9.6 0.00 0.00 0.00 73 1013.1
20260903191051 73 279 4.3 11.3 0.00 0.00 0.00 72 1013.1
20260903190555 73 241 7.0 11.3 0.00 0.00 0.00 71 1013.2
20260903190103 74 284 4.3 10.4 0.00 0.00 0.00 70 1013.2
20260903185554 74 210 5.2 9.6 0.00 0.00 0.00 71 1013.2
20260903185054 74 290 2.6 7.0 0.00 0.00 0.00 70 1013.3
20260903184604 74 200 1.7 8.7 0.00 0.00 0.00 69 1013.3
20260903184054 74 293 2.6 8.7 0.00 0.00 0.00 69 1013.3
20260903183551 74 265 1.7 8.7 0.00 0.00 0.00 69 1013.4
20260903183121 75 195 4.3 12.2 0.00 0.00 0.00 67 1013.5
20260903182554 75 198 3.5 12.2 0.00 0.00 0.00 67 1013.5
20260903182052 75 175 0.9 8.7 0.00 0.00 0.00 67 1013.6